Starlink 30189

operational
NORAD ID: 57430 Int'l Des: 2023-105 Owner: SPXS Country: US Constellation: starlink
LEOCIRCULAR

Über Starlink 30189

Beschreibung wird geladen...

Live-Position

3D-Globus wird geladen...

Nächste Überflüge

Höhenverlauf

Altitude vs Time

uPlot chart will show altitude changes over time

Zweizeiliger Elementsatz

1 57430U 23105A 25350.33337963 .00048992 00000-0 25696-2 0 9994
2 57430 43.0003 353.2260 0001402 302.9200 207.4432 15.15026884 5697
Epoch: 16. Dez. 2025 • Age: 17 hours

Aktueller Status

Höhe 524.6 km
Geschwindigkeit 7.61 km/s
Subsatellitenpunkt 42.97°N, 17.54°W
Startdatum 24. Juli 2023
Alter 2.4 years
Typ internet

Technische Details

Klassifizierung Payload
Masse 730.00 kg
Trockenmasse 700.00 kg
Gesamtmasse 730.00 kg
Länge 0.30 m
Durchmesser 4.10 m
Spannweite 29.00 m
Form Box + pan
Hersteller SPXS
Bus-Typ Starlink V2M
Phasenstatus In Orbit
Besitzer/Staat SPXS/US

Große Konstellationen

Loading constellations...